Tracking 31027 objects as of 19-Jul-2025
HD Live streaming from Space Station
objects crossing your sky now

USA 113

Track USA 113 now!
USA 113 is classified as:


NORAD ID: 23628
Int'l Code: 1995-038A
Perigee: 36,233.0 km
Apogee: 36,268.6 km
Inclination: 13.1 °
Period: 1,459.5 minutes
Semi major axis: 42621 km
RCS: Unknown
Launch date: July 31, 1995
Source: United States (US)
Launch site: AIR FORCE EASTERN TEST RANGE (AFETR)

Super High Frequency (SHF) for U.S. government and military; sophisticated survivability enhancement; worldwide, longhaul coverage; X-band.
Your satellite tracking list
SL-8 DEB
Track 1 satellite(s)




NASA's NSSDC Master Catalog

Two Line Element Set (TLE):
1 23628U 95038A   25199.16503000  .00000006  00000-0  00000-0 0  9993
2 23628  13.1040  17.9387 0004172 191.5081  16.8194  0.98663245 29469
Source of the keplerian elements: McCants